Location: Aldenham
(51.6667°N, 0.3500°W)
Time: 17:20:57
(UTC+00:00)

YAOGAN 1 - Pass Details

Date: 18 November 2025
Orbit: 605 x 607 km, 97.8° (Epoch: 10 December)

Event Time Altitude Azimuth Distance (km) Brightness Sun altitude
Rises 18:18:44 0° 165° (SSE) 2,855 5.9 -20.0°
Reaches altitude 10° 18:20:54 10° 165° (SSE) 1,955 5.0 -20.3°
Maximum altitude 18:25:10 87° 254° (WSW) 616 2.4 -21.0°
Drops below altitude 10° 18:29:27 10° 346° (NNW) 1,970 5.2 -21.7°
Sets 18:31:39 0° 346° (NNW) 2,878 6.1 -22.0°
